MIDAS 4 DEB, 42664

Orbit data source: Space-Track

MIDAS 4 DEB, 42664 is space debris in LEO originally from a launch on Sat, 21 Oct 1961 UTC launched from the Air Force Western Test Range (AFWTR). Debris objects in space refer to the collection of defunct objects orbiting the Earth. Examples of debris include non-operational satellites, rocket bodies, and fragments generated from explosions, collisions, or faulty payload assembly.

Loading next visibility...
Identifier
42664, 1961-028K
Orbit
LEO
Last TLE update
2 weeks ago
Origin
Manufacturer
Unknown
Mission
Spacecraft
Bus & Motor
Unknown
Mass
Unknown
Launch date (UTC)
1961-10-21 (64 years ago)
Launch vehicle
Unknown
Launch site
Air Force Western Test Range (AFWTR)
Object type
Payload
Rocket body
Debris
Shape & HBR
Unknown
Radar Cross Section
Medium (>0.1 m² and <1 m²)

Expand to show TLE details & history

TLE from 2 weeks ago
0 MIDAS 4 DEB
1 42664U 61028K   25171.37499081  .00000018  00000-0  92406-2 0  9998
2 42664  95.8288 160.7687 0344181 220.8838 136.5723  8.69043768319024
Epoch: 2025-06-20T08:59Z
TLE epoch observation values (Epoch: 2025-06-20T08:59:59.205Z)
Latitude
-0.00006°
Longitude
116.94279°
Altitude
3,872.491 km
Speed
6.156 km/s
True Right ascension
10h 43m 04s
True Declination
0° 00' 00"
Sunlit
Object was in daylight at epoch
Visualization orbit readout
Latitude
15.55196°
Longitude
-59.12251°
Altitude
3,370.618 km
Speed
6.474 km/s
Apparent Right ascension
00h 54m 25s
Apparent Declination
-12° 57' 07"
Sunlit
Object is in daylight
Visualization observer readout
Local Sidereal Time
20:22:39
Azimuth
114.244° SE
Elevation
7.868°
Doppler factor
1
Orbital elements
Apogee altitude
3,956.871 km
Perigee altitude
3,269.12 km
Semi-major axis
9,991.132 km
Eccentricity
0.03442
Inclination
95.8288°
RAAN
160.7687°
Arg. of periapsis
220.8838°
True anomaly
Unknown
Mean anomaly
136.5723°
Eccentric anomaly
Unknown
Mean motion
2.17331 °/min
Orbital period
165.65 mins
BSTAR
0.0092406
Loading maneuver chart data...
Loading SW <> Apogee altitude chart data...
Loading historical data...
Loading historical data...
Loading historical data...
Loading historical data...
Loading historical data...
Loading historical data...
Loading historical data...

MIDAS 4 DEB Visibility forecast

Observer location: undefined°, undefined°

Span
Click to sort rows by Start time (UTC) header in descending order
Start Az.
Max El. time (UTC)
Max El. Az.
Max El.
End time (UTC)
End Az.
35 mins2025-07-01 11:01:29.411Z9.857° NNE2025-07-01 11:19:29.411Z94.663° ESE44.756°2025-07-01 11:36:29.411Z188.85° SSW
26 mins2025-07-01 13:46:29.411Z358.04° N2025-07-01 13:59:29.411Z309.333° NW26.546°2025-07-01 14:12:29.411Z258.064° W
15 mins2025-07-01 18:54:29.411Z55.674° ENE2025-07-01 19:01:29.411Z33.154° NE14.801°2025-07-01 19:09:29.411Z7.106° NNE
36 mins2025-07-01 21:19:29.411Z134.804° SE2025-07-01 21:37:29.411Z64.471° ENE39.445°2025-07-01 21:55:29.411Z355.715° N
36 mins2025-07-02 00:02:29.411Z200.691° SSW2025-07-02 00:20:29.411Z274.276° WNW37.278°2025-07-02 00:38:29.411Z343.922° N
|